Estación Meteorológica Peña el Pijo (Robertgarden) [ 07/12/20 05:46:42 CEST ]

Fecha Hora Presion(HPa) Temp (°C) Humedad % Rocio (°C) Viento ( m/s) Direccion Lluvia 1Hora(mm) Lluvia 24H(mm) LLuvia Total(mm)
2020-Feb-23 01:08:43 1022.000 - - - - N     39.88
2020-Feb-23 02:09:28 1021.600 - - - - N     39.88
2020-Feb-23 03:10:25 1021.700 - - - - N     39.88
2020-Feb-23 04:10:14 1021.600 - - - - N     39.88
2020-Feb-23 05:09:46 1021.600 - - - - N     39.88
2020-Feb-23 06:10:03 1021.300 - - - - N     39.88
2020-Feb-23 07:09:51 1021.400 - - - - N     39.88
2020-Feb-23 08:08:56 1022.000 - - - - N     39.88
2020-Feb-23 09:08:44 1022.700 - - - - N     39.88
2020-Feb-23 10:08:51 1022.600 - - - - N     39.88
2020-Feb-23 11:09:02 1022.600 - - - - N     39.88
2020-Feb-23 12:09:09 1022.100 - - - - N     39.88
2020-Feb-23 13:09:34 1021.300 - - - - N     39.88
2020-Feb-23 14:09:02 1020.300 - - - - N     39.88
2020-Feb-23 15:08:58 1019.300 - - - - N     39.88
2020-Feb-23 16:09:08 1019.000 - - - - N     39.88
2020-Feb-23 17:09:25 1018.800 - - - - N     39.88
2020-Feb-23 18:09:04 1019.100 - - - - N     39.88
2020-Feb-23 19:08:57 1019.500 - - - - N     39.88
2020-Feb-23 20:09:17 1020.300 - - - - N     39.88
2020-Feb-23 21:09:08 1020.400 - - - - N     39.88
2020-Feb-23 22:09:08 1020.300 - - - - N     39.88
2020-Feb-23 23:09:12 1020.400 - - - - N     39.88

Temperatura Máxima:    Temperatura Mínima:
Presión Máxima:1022.700 Hpa    Presión Mínima:1018.800 Hpa


Volver